Roosevelt Roads, PR

5:36 PM AST on April 28, 2017 (GMT -0400)
Roosevelt Roads Ns

Weather History for TJNR - May, 2013

Change the Weather History Date:

Friday, May 10, 2013

  Actual Average Record
Temperature  
Mean Temperature 76 °F -  
Max Temperature 82 °F 83 °F 88 °F (2002)
Min Temperature 69 °F 72 °F 69 °F (2013)
Cooling Degree Days 10    
Growing Degree Days 26 (Base 50)    
Moisture  
Dew Point 73 °F    
Average Humidity 91    
Maximum Humidity 100    
Minimum Humidity 77    
Precipitation  
Precipitation 1.58 in - - ()
Sea Level Pressure  
Sea Level Pressure 30.07 in    
Wind  
Wind Speed 9 mph (East)    
Max Wind Speed 22 mph    
Max Gust Speed 33 mph    
Visibility 8 miles    
Events Rain    
Averages and records for this station are not official NWS values.
T = Trace of Precipitation, MM = Missing Value Source: NWS Daily Summary

Daily Weather History Graph

Daily Weather History Graph

Search for Another Location

Airport or City:

Trip Planner

Search our weather history database for the weather conditions in past years. The results will help you decide how hot, cold, wet, or windy it might be!

Date:

Astronomy

May. 10, 2013 Rise Set
Actual Time 5:51 AM AST 6:47 PM AST
Civil Twilight 5:27 AM AST 7:10 PM AST
Nautical Twilight 5:00 AM AST 7:37 PM AST
Astronomical Twilight 4:32 AM AST 8:05 PM AST
Moon 6:13 AM AST (5/10) 7:29 PM AST (5/10)
Length of Visible Light 13h 42m
Length of Day
12h 55m
New Moon, 0% of the Moon is Illuminated
May 10
New Moon
May 18
First Quarter
May 25
Full
May 31
Last Quarter
Jun 8
New

Hourly Weather History & Observations

Time (AST) Temp. Heat Index Dew Point Humidity Pressure Visibility Wind Dir Wind Speed Gust Speed Precip Events Conditions
12:41 AM 75.2 °F - 75.2 °F 100% 30.12 in 9.0 mi East 4.6 mph - 0.02 in   Overcast
12:53 AM 73.9 °F - 73.9 °F 100% 30.12 in 3.0 mi East 8.1 mph 18.4 mph 0.10 in Rain Light Rain
1:21 AM 75.2 °F - - N/A% 30.10 in 8.0 mi ENE 3.5 mph - 0.07 in Rain Light Rain
1:53 AM 75.0 °F - - N/A% 30.08 in 10.0 mi East 6.9 mph - 0.07 in   Overcast
2:35 AM 75.2 °F - - N/A% 30.07 in 10.0 mi ESE 5.8 mph - N/A   Overcast
2:53 AM 75.0 °F - - N/A% 30.06 in 10.0 mi ESE 5.8 mph - N/A   Overcast
3:53 AM 75.9 °F - - N/A% 30.05 in 10.0 mi East 9.2 mph 17.3 mph N/A   Overcast
4:12 AM 75.2 °F - 75.2 °F 100% 30.05 in 10.0 mi East 9.2 mph - N/A   Overcast
4:53 AM 75.9 °F - 73.9 °F 94% 30.05 in 10.0 mi East 9.2 mph - N/A   Overcast
5:53 AM 75.0 °F - 73.9 °F 96% 30.06 in 10.0 mi East 6.9 mph - N/A   Overcast
6:16 AM 75.2 °F - 73.4 °F 94% 30.07 in 9.0 mi ENE 3.5 mph - N/A   Overcast
6:53 AM 75.9 °F - 73.9 °F 94% 30.07 in 5.0 mi ESE 5.8 mph - 0.01 in Rain Light Rain
7:53 AM 77.0 °F - 73.0 °F 88% 30.09 in 10.0 mi ESE 11.5 mph - 0.00 in   Overcast
8:53 AM 78.1 °F - 72.0 °F 81% 30.10 in 10.0 mi ESE 8.1 mph - N/A   Overcast
9:53 AM 79.0 °F - 73.0 °F 82% 30.11 in 10.0 mi ESE 11.5 mph - N/A   Overcast
10:53 AM 80.1 °F 84.2 °F 73.0 °F 79% 30.11 in 10.0 mi ESE 12.7 mph 20.7 mph N/A   Overcast
11:53 AM 81.0 °F 86.2 °F 73.9 °F 79% 30.09 in 10.0 mi ESE 15.0 mph - 0.00 in   Mostly Cloudy
12:53 PM 82.9 °F 90.2 °F 75.0 °F 77% 30.07 in 10.0 mi ESE 15.0 mph - N/A   Scattered Clouds
1:53 PM 82.0 °F 88.6 °F 75.0 °F 79% 30.04 in 10.0 mi ESE 15.0 mph - N/A   Partly Cloudy
2:53 PM 80.1 °F 85.1 °F 75.0 °F 85% 30.01 in 9.0 mi ESE 12.7 mph - N/A   Overcast
3:20 PM 80.6 °F 86.2 °F 75.2 °F 84% 30.00 in 9.0 mi ESE 16.1 mph - N/A   Overcast
3:43 PM 80.6 °F 86.2 °F 75.2 °F 84% 29.99 in 9.0 mi ESE 12.7 mph - N/A   Mostly Cloudy
3:53 PM 80.1 °F 85.1 °F 75.0 °F 85% 29.99 in 9.0 mi ESE 12.7 mph - N/A   Mostly Cloudy
4:28 PM 78.8 °F - 73.4 °F 83% 29.98 in 9.0 mi ESE 11.5 mph - N/A   Overcast
4:53 PM 79.0 °F - 75.0 °F 88% 30.00 in 9.0 mi ESE 12.7 mph 18.4 mph N/A   Overcast
5:53 PM 78.1 °F - 73.9 °F 87% 30.02 in 9.0 mi ESE 11.5 mph 18.4 mph N/A   Scattered Clouds
6:53 PM 78.1 °F - 73.9 °F 87% 30.03 in 9.0 mi ESE 11.5 mph - N/A   Scattered Clouds
7:03 PM 78.8 °F - 73.4 °F 83% 30.03 in 9.0 mi ESE 11.5 mph - N/A   Mostly Cloudy
7:32 PM 78.8 °F - 73.4 °F 83% 30.04 in 10.0 mi ESE 10.4 mph - N/A   Overcast
7:53 PM 78.1 °F - 73.9 °F 87% 30.07 in 8.0 mi ENE 9.2 mph - 0.00 in Rain Light Rain
8:02 PM 71.6 °F - 71.6 °F 100% 30.10 in 1.5 mi NNE 21.9 mph 33.4 mph 0.30 in Rain Heavy Rain
8:06 PM 69.8 °F - 69.8 °F 100% 30.10 in 0.8 mi NNE 17.3 mph 33.4 mph 0.55 in Rain Heavy Rain
8:08 PM 69.8 °F - 69.8 °F 100% 30.10 in 0.8 mi NNE 20.7 mph 33.4 mph 0.65 in Rain Heavy Rain
8:16 PM 69.8 °F - 69.8 °F 100% 30.09 in 1.0 mi NE 17.3 mph 27.6 mph 1.01 in Rain Heavy Rain
8:28 PM 69.8 °F - - N/A% 30.10 in 1.5 mi NE 13.8 mph 23.0 mph 1.26 in Rain Heavy Rain
8:31 PM 69.8 °F - - N/A% 30.10 in 2.0 mi NNE 11.5 mph 21.9 mph 1.27 in Rain Rain
8:41 PM 69.8 °F - - N/A% 30.09 in 3.0 mi NE 16.1 mph 20.7 mph 1.32 in Rain Rain
8:49 PM 69.8 °F - - N/A% 30.09 in 3.0 mi ENE 9.2 mph 20.7 mph 1.36 in Rain Rain
8:53 PM 70.0 °F - - N/A% 30.09 in 3.0 mi ENE 11.5 mph 18.4 mph 1.37 in Rain Rain
8:58 PM 69.8 °F - - N/A% 30.09 in 4.0 mi ENE 11.5 mph 17.3 mph 0.01 in Rain Light Rain
9:08 PM 71.6 °F - - N/A% 30.11 in 6.0 mi NE 9.2 mph - 0.02 in Rain Light Rain
9:34 PM 71.6 °F - - N/A% 30.11 in 10.0 mi NE 12.7 mph 20.7 mph 0.02 in Rain Light Rain
9:53 PM 72.0 °F - 72.0 °F 100% 30.12 in 8.0 mi NNE 13.8 mph 25.3 mph 0.03 in Rain Light Rain
10:19 PM 71.6 °F - 71.6 °F 100% 30.10 in 10.0 mi NE 17.3 mph 25.3 mph 0.00 in   Overcast
10:53 PM 71.1 °F - 71.1 °F 100% 30.10 in 10.0 mi North 5.8 mph - 0.00 in   Overcast
11:32 PM 71.6 °F - 71.6 °F 100% 30.08 in 10.0 mi North 6.9 mph - N/A   Overcast
11:53 PM 71.1 °F - 71.1 °F 100% 30.08 in 10.0 mi North 5.8 mph - N/A   Mostly Cloudy